Location: *
(28.2408°N, 53.4600°E)
Time: 02:06:16
(UTC+00:00)

GPS 2-14 Rocket1 - Pass Details

Date: 22 September 2019
Orbit: 477 x 543 km, 20.7° (Epoch: 20 October)

Event Time Altitude Azimuth Distance (km) Brightness Sun altitude
Rises 14:40:50 0° 254° (WSW) 2,580 7.9 -4.7°
Reaches altitude 10° 14:43:21 10° 241° (WSW) 1,683 6.3 -5.2°
Maximum altitude 14:46:34 25° 185° (S) 1,018 4.2 -6.0°
Drops below altitude 10° 14:49:44 10° 128° (SE) 1,653 4.8 -6.6°
Enters shadow 14:50:42 - 122° (ESE) 1,982 5.1 -6.9°
